DEBRISSAT-2 (43680 NORAD) Tracking and Keplerian Element Data

This shows tracking and keplerian element data for the satellite.

Feedback or suggestion? Click here.




ElementValue
Catalog43680
NameDEBRISSAT-2
Epoch Orbit2365
Epoch Day323.54105269
Epoch Year2018
RAAN323.3585
Inclination51.6412
Eccentricity0.0004685
Argument of Perigee68.4917
Mean Anonmoly291.6573
Mean Motion15.55936487
Decay Rate0.0001098
L11 43680U 98067PR 18323.54105269 .00010980 00000-0 16189-3 0 9996
L22 43680 51.6412 323.3585 0004685 68.4917 291.6573 15.55936487 23651

Live tracking and technical data element details for DEBRISSAT-2 (NORAD 43680). DEBRISSAT-2 can be tracked NOW for your location showing map with azimuth and elevation plus other details from your city location.

Track the satellite on the map from your city or location and see movement details for azimuth, elevation, latitude, longitude, range, height, and movement on the map or in text.







IsCatalogInMostPopularTable: catalog: 43680, numindb: 17
Update: records affected: 1



GetName: 43680 DEBRISSAT-2

Hit Count: updated at: Tue, 20 Nov 2018 11:37:47 GMT